Dewpoint
49 49 50 51 52 52 52 53 52 52 53 53 54 54 56 56 58 59 61 62 61 63 62 62 63 62 63 64 66 65 65 64 65 65 62 64 65 63 65 66 66 67 66 64 64 61 62 60 61 64 66 66 67 67 68 67 66 65 65 65 64 63 64
49 49 49 50 51 52 52 52 53 52 53 53 54 55 57 56 57 58 60 61 63 63 63 63 63 63 63 64 65 66 66 65 64 65 66 63 64 66 64 64 64 64 65 64 63 65 61 59 60 62 63 66 67 67 67 68 67 67 66 66 65 64 64
49 50 50 50 51 53 51 53 53 52 52 54 55 56 57 57 58 59 60 61 63 64 63 64 63 64 64 64 64 65 66 65 65 65 64 65 65 65 67 65 64 64 63 63 64 64 63 63 61 62 63 62 63 65 67 67 68 67 67 67 68 66 64
49 50 50 50 50 51 51 52 53 52 52 53 54 56 57 57 58 59 60 60 61 62 64 64 63 64 64 64 64 65 65 65 65 65 64 64 65 63 65 66 63 62 62 62 62 65 63 63 61 62 63 62 60 62 65 66 66 66 66 67 67 66 67
49 49 50 51 50 51 52 52 52 52 53 52 54 55 57 57 58 59 59 60 61 61 62 63 64 64 64 64 64 64 66 66 65 65 66 65 65 64 64 65 66 64 63 64 65 65 65 63 61 62 62 62 62 59 64 65 65 64 65 65 65 65 66
49 49 49 50 50 52 52 53 54 53 53 52 53 54 55 58 57 58 58 59 59 60 60 61 63 63 63 64 64 65 65 63 64 65 65 64 64 64 63 67 65 64 65 66 66 65 65 65 63 62 57 58 59 59 64 64 65 64 64 64 63 63 64
50 50 50 50 50 51 52 53 54 54 54 53 53 54 55 57 57 56 57 57 57 58 58 60 62 63 63 62 63 64 65 65 65 64 64 65 66 66 66 65 64 64 64 65 66 65 65 64 63 61 62 63 62 58 65 61 59 61 62 63 63 63 63
49 49 49 50 50 51 53 54 54 54 54 54 53 54 55 57 56 56 57 57 57 58 58 59 62 63 63 63 63 63 64 65 65 65 65 65 64 65 65 66 65 65 65 68 65 65 66 65 64 63 62 61 60 60 62 58 57 57 59 61 61 62 62
49 50 50 50 50 52 53 53 54 56 56 55 56 55 54 54 55 56 57 58 58 58 58 58 60 62 63 64 63 63 63 63 64 64 64 64 64 65 67 66 64 64 65 64 64 67 67 67 66 65 64 63 61 59 60 61 59 57 56 58 59 60 62
49 49 49 51 51 53 54 55 55 55 56 57 56 56 56 55 56 56 57 57 57 57 58 58 59 60 62 64 64 64 64 65 65 63 64 64 64 64 64 65 65 65 66 66 66 65 64 66 66 66 66 64 63 62 60 57 60 62 57 55 58 58 60
48 47 50 50 52 53 54 55 55 55 56 57 55 55 55 55 55 56 56 56 57 57 58 58 59 59 60 62 64 64 64 64 64 64 63 64 65 66 65 65 65 64 66 66 65 65 64 66 65 64 66 65 65 63 61 58 59 62 64 61 58 57 58
48 48 49 51 53 53 53 55 55 57 57 58 55 55 55 53 54 54 55 55 56 56 57 58 58 58 60 61 62 65 64 63 62 62 64 65 65 63 63 64 65 65 66 66 65 65 64 65 65 66 65 65 65 65 65 62 60 64 65 62 64 60 58
47 47 49 51 52 54 56 57 56 57 59 56 54 54 53 51 52 53 52 53 54 56 56 57 58 58 59 61 63 62 62 62 62 61 62 64 65 63 63 64 64 64 65 64 64 66 65 65 65 66 65 65 65 65 66 64 62 60 66 64 65 66 66
49 47 50 51 53 55 57 57 56 57 55 54 53 52 52 51 51 53 52 52 52 54 56 56 58 58 58 58 61 62 62 60 60 61 62 63 64 64 63 63 64 64 64 65 64 62 64 64 65 66 66 66 66 65 64 64 62 62 64 67 66 66 67
48 48 50 52 54 57 56 55 56 55 54 52 51 51 50 51 51 51 51 51 51 53 54 55 56 57 57 58 58 59 60 59 60 61 62 62 63 63 63 61 62 63 63 62 62 63 64 66 65 64 65 64 65 64 65 64 63 62 61 66 66 67 68
49 50 50 51 53 55 56 55 54 53 51 51 50 51 51 51 50 50 50 51 50 52 53 53 55 56 56 56 56 58 59 59 60 60 60 61 60 63 63 63 62 63 65 64 63 65 64 64 63 63 64 65 65 65 66 65 64 63 62 63 66 65 66
50 50 50 50 53 55 56 54 52 51 51 51 50 51 51 50 50 51 51 50 50 51 52 53 53 54 54 55 55 57 57 58 59 60 61 60 61 62 62 61 61 63 64 63 64 65 66 65 66 64 64 65 66 66 66 67 66 64 63 62 65 64 66
50 50 49 50 52 55 54 52 52 50 51 49 49 50 51 50 51 51 51 49 49 50 51 52 52 53 54 56 55 56 57 57 58 59 60 60 61 61 61 61 62 62 63 63 62 64 62 64 64 65 64 64 66 66 64 64 66 66 64 63 63 65 65
49 49 48 49 51 54 53 53 51 51 49 48 48 50 51 51 50 49 48 48 49 49 50 52 51 51 53 54 55 55 56 57 57 58 58 60 60 62 62 61 61 62 62 63 64 62 63 63 63 63 63 64 64 63 62 64 65 65 64 64 64 63 64
49 49 48 50 51 52 53 52 51 49 49 48 49 49 49 49 49 49 48 49 48 49 50 50 50 50 51 52 53 54 55 56 56 57 58 58 59 61 62 61 61 62 60 61 61 62 63 63 63 63 64 64 64 64 64 65 65 65 64 64 64 64 63
48 47 48 50 50 53 52 51 50 50 49 49 50 50 48 48 49 49 49 48 47 49 49 49 48 48 49 50 52 54 55 55 55 56 57 57 59 59 60 61 62 61 61 61 61 61 62 62 62 62 65 65 64 64 64 64 64 63 64 63 64 64 65
48 47 48 50 52 54 51 50 50 50 49 50 51 50 49 48 47 48 48 48 46 48 50 50 49 48 48 49 51 52 54 55 55 55 56 56 57 58 59 59 59 60 62 62 62 63 63 62 61 63 65 64 64 64 61 63 63 63 63 62 62 63 64
45 46 48 49 50 51 50 50 50 50 48 49 51 51 50 48 47 48 48 47 48 50 50 49 47 44 43 47 49 51 54 54 54 54 55 55 56 56 57 59 60 61 61 61 62 60 58 59 61 63 65 62 63 62 62 62 63 62 63 61 61 61 63
44 44 46 48 50 50 50 51 50 49 49 49 51 51 51 49 47 48 48 48 48 49 49 49 42 40 40 41 47 52 52 54 54 54 55 55 55 56 57 56 60 60 61 60 61 56 55 54 54 56 58 60 62 63 62 62 61 61 61 61 61 61 61
42 43 45 45 47 48 49 50 48 47 48 49 49 51 52 50 49 49 49 48 49 48 49 44 39 40 40 40 41 49 53 52 54 54 54 54 55 55 57 57 58 58 59 60 61 63 59 54 51 52 51 51 52 51 50 60 61 62 62 61 62 63 62
41 43 44 44 46 48 47 47 46 46 47 48 49 49 51 51 50 49 49 48 48 48 48 42 40 40 40 39 40 46 51 52 52 54 54 54 55 56 57 57 57 58 59 58 59 60 62 60 51 50 50 50 49 47 46 47 48 60 63 63 61 61 62
41 42 44 45 46 46 46 46 47 47 46 47 47 47 50 51 51 49 49 48 48 48 49 43 39 40 39 39 39 42 53 53 53 52 53 54 55 56 56 57 57 58 58 58 58 59 60 61 60 59 60 61 60 56 52 50 50 49 55 62 62 61 62
41 42 43 44 46 45 45 46 46 46 46 45 46 46 48 50 49 50 50 49 49 48 53 40 39 39 39 39 39 42 54 53 53 53 54 55 55 55 56 56 57 57 57 58 57 55 58 60 61 61 60 59 58 56 54 53 54 57 61 61 63 61 59
42 42 43 44 45 45 45 45 45 45 46 45 46 47 49 50 49 48 49 49 49 48 52 39 39 39 39 39 39 53 55 54 54 53 53 54 54 55 55 56 56 57 58 58 50 42 48 58 60 59 58 57 56 54 51 48 43 46 51 54 54 53 51
42 43 43 43 43 43 44 44 44 45 45 46 46 47 49 48 49 49 49 48 49 48 48 44 39 39 39 39 44 54 54 53 53 54 53 54 54 54 54 54 55 56 56 56 46 39 42 54 59 58 57 55 55 54 53 51 45 43 42 42 42 42 42
40 42 42 42 42 43 44 45 46 46 45 45 45 47 47 47 49 49 50 49 48 47 47 46 39 39 39 39 42 53 53 53 53 53 53 54 54 53 52 51 52 53 54 53 40 38 43 56 58 56 55 54 53 53 53 54 54 53 45 45 44 44 44
40 41 41 42 43 43 43 44 44 46 46 45 45 46 46 46 47 48 50 50 45 49 47 47 39 38 39 40 46 53 52 52 51 52 52 51 53 52 52 50 47 45 46 45 38 40 42 53 58 56 55 54 53 53 53 54 53 53 53 54 54 54 53
42 42 40 41 42 43 43 43 44 45 46 44 43 44 46 46 47 48 49 49 48 47 47 49 45 39 39 40 41 53 52 51 51 51 50 49 50 51 50 50 47 39 38 39 39 40 42 43 55 57 56 55 54 53 53 53 53 52 51 52 51 52 51
42 42 42 41 41 41 44 45 45 44 44 44 44 45 47 48 47 48 48 47 46 46 50 49 49 38 39 40 40 43 51 50 50 49 48 47 47 48 48 48 49 41 38 38 39 40 42 43 48 57 57 56 55 54 51 51 51 51 51 51 50 50 49
43 43 41 39 40 40 40 39 41 43 40 42 45 46 49 47 46 46 46 45 45 46 47 44 49 41 39 39 39 40 50 51 50 49 48 46 46 47 47 47 46 41 37 38 39 40 42 44 46 54 53 45 44 45 52 51 50 49 48 48 47 46 47
43 42 42 42 40 39 38 37 36 38 41 43 44 46 48 47 46 45 44 42 44 46 47 45 41 46 39 38 39 39 39 45 43 51 47 47 48 47 47 46 44 41 37 37 38 38 40 42 46 47 40 41 42 43 47 50 49 49 47 46 46 45 44
43 43 42 42 39 39 38 35 32 32 37 40 42 45 45 45 45 43 41 41 44 44 45 46 43 40 43 38 39 39 39 39 40 47 48 47 46 46 46 45 41 37 37 38 38 38 38 40 43 39 39 40 41 44 50 49 48 47 45 43 43 43 44